Location: Betzi
(47.2343°N, 9.5260°E)
Time: 23:56:22
(UTC+00:00)

Lacrosse 5 rocket - Pass Details

Date: 27 May 2022
Orbit: 457 x 629 km, 57.0° (Epoch: 26 June)

Event Time Altitude Azimuth Distance (km) Brightness Sun altitude
Exits shadow 02:50:05 - 262° (W) 2,209 3.9 -6.7°
Reaches altitude 10° 02:51:20 10° 269° (W) 1,744 3.4 -6.5°
Maximum altitude 02:54:58 35° 336° (NNW) 878 2.5 -6.1°
Drops below altitude 10° 02:58:50 10° 44° (NE) 1,850 5.9 -5.6°
Sets 03:01:18 0° 53° (NE) 2,782 7.9 -5.2°
